#timestamp,LO_Frequency,Hit,StdDev 
1700679615.2,286047000.0,N
1700679635.1,286047001.8,N
1700679636.0,286047001.8,N
1700679655.8,286047001.9,N
1700679675.6,286047000.1,N
1700679695.5,286046998.1,N
1700679715.3,286047001.0,N
1700679735.2,286046998.7,N
1700679755.9,286046996.5,N
1700679775.7,286046998.9,N
1700679795.6,286046999.6,N
1700679815.4,286046998.3,N
1700679835.3,286047000.9,N
1700679855.1,286046999.9,N
1700679856.0,286046999.9,N
1700679875.8,286046999.7,N
1700679895.7,286047002.6,N
1700679915.5,286047002.2,N
1700679935.4,286046999.7,N
1700679955.2,286046998.5,N
1700679975.0,286046998.5,N
1700679975.9,286046998.5,N
1700679995.8,286047000.5,N
1700680015.6,286047000.3,N
1700680035.4,286047000.5,N
1700680055.3,286047000.9,N
1700680075.1,286047000.0,N
1700680095.9,286047002.7,N
1700680115.7,286047002.0,N
1700680135.5,286047004.3,N
1700680155.4,286047002.5,N
1700680175.2,286047001.6,N
1700680195.0,286047002.6,N
1700680196.0,286047002.6,N
1700680215.8,286046999.8,N
1700680235.6,286047002.7,N
1700680255.5,286047000.3,N
1700680275.3,286047002.2,N
1700680295.1,286046999.8,N
1700680315.9,286047000.0,N
1700680335.7,286046999.7,N
1700680355.6,286047000.7,N
1700680375.4,286047002.8,N
1700680395.2,286047000.2,N
1700680415.1,286047000.2,N
1700680416.0,286047000.2,N
1700680435.8,286047002.6,N
1700680455.6,286046999.8,N
1700680475.5,286047000.6,N
1700680495.3,286046998.6,N
1700680515.2,286047000.6,N
1700680535.9,286047000.6,N
1700680555.7,286047000.5,N
1700680575.6,286046999.0,N
1700680595.4,286046998.4,N
1700680615.2,286046998.7,N
1700680635.1,286046998.5,N
1700680636.0,286046998.5,N
1700680655.8,286047001.2,N
1700680675.7,286047001.0,N
1700680695.5,286047000.8,N
1700680715.3,286046999.9,N
1700680735.2,286047000.6,N
1700680755.0,286047000.6,N
1700680755.9,286047000.6,N
1700680775.7,286047000.2,N
1700680795.6,286047004.2,Y
1700680815.4,286047002.0,P
1700680835.3,286047002.6,N
1700680855.1,286047001.6,N
1700680856.0,286047001.6,N
1700680875.8,286047002.2,N
1700680895.7,286047002.8,Y
1700680915.5,286047000.7,P
1700680935.4,286047000.2,N
1700680955.2,286047002.7,P
1700680975.0,286046999.7,N
1700680975.9,286046999.7,N
1700680995.8,286047002.4,N
1700681015.6,286046999.9,N
1700681035.4,286047000.8,N
1700681055.3,286047000.7,N
1700681075.1,286046998.6,N
1700681095.9,286046998.4,N
1700681115.7,286046996.6,N
1700681135.5,286046998.9,N
1700681155.4,286046998.1,N
1700681175.2,286047000.2,N
1700681195.0,286047002.7,N
1700681195.9,286047002.7,N
1700681215.8,286047002.5,N
1700681235.6,286047002.2,N
1700681255.5,286047002.0,N
1700681275.3,286047002.1,N
1700681295.1,286047000.2,N
1700681315.9,286047001.1,N
1700681335.7,286047002.8,N
1700681355.5,286047001.0,N
1700681375.4,286047002.7,N
1700681395.2,286047000.7,N
1700681415.1,286047000.2,N
1700681416.0,286047000.2,N
1700681435.8,286047000.6,N
1700681455.6,286047001.0,N
1700681475.5,286046998.9,N
1700681495.3,286046998.8,N
1700681515.1,286046998.2,N
1700681535.9,286047002.8,N
1700681555.7,286047002.2,N
1700681575.6,286047002.6,N
1700681595.4,286047002.3,N
1700681615.2,286047001.6,N
1700681635.1,286047002.0,N
1700681636.0,286047002.0,N
1700681655.8,286047002.5,N
1700681675.6,286047000.0,N
1700681695.5,286046998.1,N
1700681715.3,286047000.0,N
1700681735.2,286047002.3,N
1700681755.9,286047000.3,N
1700681775.7,286047002.8,N
1700681795.6,286047002.3,N
1700681815.4,286047001.5,N
1700681835.2,286047001.9,N
1700681855.1,286047002.4,N
1700681856.0,286047002.4,N
1700681875.8,286047002.8,N
1700681895.7,286047002.6,N
1700681915.5,286047000.4,N
1700681935.3,286047000.5,N
1700681955.2,286046998.1,N
1700681975.0,286046999.0,N
1700681975.9,286046999.0,N
1700681995.8,286046996.7,N
1700682015.6,286046999.1,N
1700682035.4,286046999.3,N
1700682055.3,286046999.1,N
1700682075.1,286046998.7,N
1700682095.9,286046999.9,N
1700682115.7,286046999.8,N
1700682135.5,286046999.8,N
1700682155.4,286046999.8,N
1700682175.2,286047001.0,N
1700682195.0,286046998.4,N
1700682195.9,286046998.4,N
1700682215.8,286046998.5,N
1700682235.6,286046998.6,N
1700682255.5,286047000.9,N
1700682275.3,286047000.7,N
1700682295.1,286047001.0,N
1700682315.9,286046999.9,N
1700682335.7,286047002.5,N
1700682355.5,286047000.1,N
1700682375.4,286047002.3,N
1700682395.2,286047002.0,N
1700682415.1,286046999.8,N
1700682416.0,286046999.8,N
1700682435.8,286047001.6,N
1700682455.6,286047002.4,N
1700682475.5,286047000.9,N
1700682495.3,286047001.2,N
1700682515.2,286046997.4,N
1700682535.9,286046997.7,N
1700682555.7,286046995.1,Y
1700682575.6,286046994.9,P
1700682595.4,286046995.2,N
1700682615.2,286046995.6,N
1700682635.1,286046998.0,N
1700682636.0,286046998.0,N
1700682655.8,286046997.2,N
1700682675.7,286046997.6,N
1700682695.5,286046995.0,Y
1700682715.3,286046999.4,P
1700682735.2,286046999.2,N
1700682755.0,286046999.5,N
1700682755.9,286046999.5,N
1700682775.8,286046996.5,Y
1700682795.6,286046999.0,P
1700682815.5,286046996.5,P
1700682835.3,286046997.4,N
1700682855.1,286046995.9,Y
1700682875.9,286046997.2,P
1700682895.7,286046997.1,P
1700682915.5,286046997.8,P
1700682935.4,286046995.3,Y
1700682955.2,286046998.2,P
1700682975.1,286046998.4,P
1700682976.0,286046998.4,P
1700682995.8,286047000.5,N
1700683015.6,286047000.0,N
1700683035.5,286047000.2,N
1700683055.3,286047000.4,N
1700683075.2,286047000.5,N
1700683095.9,286047000.3,N
1700683115.7,286046998.2,N
1700683135.6,286046998.2,N
1700683155.4,286046999.1,N
1700683175.3,286046998.8,N
1700683195.1,286046998.9,N
